Location: Newark
(45.4422°N, 16.2769°E)
Time: 14:27:23
(UTC+00:00)

Courier 1B Rocket - Pass Details

Date: 11 December 2019
Orbit: 920 x 1202 km, 28.2° (Epoch: 18 January)

Event Time Altitude Azimuth Distance (km) Brightness Sun altitude
Rises 07:14:39 0° 241° (WSW) 3,729 7.9 6.2°
Reaches altitude 10° 07:18:28 10° 221° (SW) 2,724 7.4 6.7°
Maximum altitude 07:22:17 16° 185° (S) 2,255 7.6 7.2°
Drops below altitude 10° 07:26:00 10° 148° (SSE) 2,640 9.3 7.6°
Sets 07:29:37 0° 128° (SE) 3,558 10.3 8.1°
